Location: Erdweis
(48.5167°N, 15.3500°E)
Time: 14:29:51
(UTC+00:00)

Cosmos 1269 Rocket - Pass Details

Date: 18 September 2020
Orbit: 772 x 780 km, 74.1° (Epoch: 23 October)

Event Time Altitude Azimuth Distance (km) Brightness Sun altitude
Rises 19:33:30 0° 337° (NNW) 3,274 8.1 -24.1°
Reaches altitude 10° 19:35:54 10° 339° (NNW) 2,343 7.2 -24.5°
Maximum altitude 19:41:14 76° 66° (ENE) 807 3.9 -25.2°
Enters shadow 19:41:30 74° 98° (E) 814 3.9 -25.2°
